ムルコス彗星

124P/Mrkos (1996)

English version
Home page
Total 6,336 html files since Dec. 4, 1995
Updated on December 22, 1998

---------------------------------------------------------------------

・ プロフィール

符号 124P/1995 S3
検出日 1995年9月20日, 9月28日
検出光度 20.2等
検出者 C. W. Hergenrother, W. Offutt (Kitt Peak)

・ 軌道要素

   The following improved orbital elements by Kenji Muraoka, are 
  from 65 observations  1991 to 1998, perturbations by 9 Plantes,
  Moon and 5 minor planets were taken into account. 
   The mean residual is +/- 0.75 arc seconds.

      Epoch  =  1996 Nov. 13.0  TT       JDT = 2450400.5
          T  =  1996 Nov.  9.07059       +/- 0.00039 (m.e.) TT
       Peri. =  180.52130                +/- 0.00030
       Node  =    1.65283                +/- 0.00002   (2000.0)
       Incl. =   31.47082                +/- 0.00005
          q  =    1.4128940              +/- 0.0000018 AU
          e  =    0.5542498              +/- 0.0000003
          a  =    3.1696989              +/- 0.0000015 AU
          n  =    0.17465340             +/- 0.00000012
          P  =    5.643                  +/- 0.0000039  years

・ 星図

・ 1995年 9月10日〜1996年 9月24日
・ 1996年 8月15日〜1997年 1月 2日
・ 1996年11月23日〜1997年 9月19日

・ 光度変化

        m1 = 12.0 + 5 logΔ + 10.0 log r

---------------------------------------------------------------------

軌道要素は村岡健治氏の計算によるものです。
星図は StellaNavigator Ver.2.0 for Windows (アストロアーツ 編著 / アスキー出版局刊) で作成したものです。
光度グラフはComet for Windowsで作成したものです。

---------------------------------------------------------------------

Copyright(C) 1995-2008 Seiichi Yoshida (comet@aerith.net). All rights reserved.